Date String (YYYY-MM-DD hh:mm:ss) UTC,Instrument flags,absolute air pressure of the measurement (hPa),sample flow rate (lpm),inlet stack bypass flow (lpm),air temperature of the measurement (°C),ambient temperature measured by the external sensor (°C),aerosol sample conditioner tube jacket temperature (°C),OPC LED temperature (°C),internal box temperature (°C),relative humidity of the measurement (%),span deviation,mass concentration of particles derived from Lorenz-Mie calculation of OPC scattering (μg/m³),mass concentration of particles derived from Lorenz-Mie calculation of OPC scattering (μg/m³),mass concentration of particles derived from Lorenz-Mie calculation of OPC scattering (μg/m³)
DateTimeUTC,F1_M11,P_M11,Q1_M11,Q2_M11,T1_M11,T2_M11,T3_M11,T4_M11,T5_M11,U1_M11,ZSPAN_M11,X2_M11,X0_M11,X1_M11
2024-04-30 05:00:00,SystemResetWarning,0822.3,5.01,000.00,026.1,025.3,000.0,034.6,027.9,014.9,0000.0,0003.22,0007.37,0001.72
2024-04-30 05:01:00,SystemResetWarning,0822.3,4.99,000.00,026.0,025.3,000.0,034.6,027.8,015.0,0000.0,0003.27,0007.46,0001.73
2024-04-30 05:02:00,SystemResetWarning,0822.2,4.99,000.00,026.0,025.2,000.0,034.5,027.8,014.8,0000.0,0003.28,0007.48,0001.72
2024-04-30 05:03:00,SystemResetWarning,0822.2,5.00,000.00,026.0,025.2,000.0,034.5,027.8,014.7,0000.0,0003.28,0007.49,0001.72
2024-04-30 05:04:00,SystemResetWarning,0822.2,5.01,000.00,026.0,025.2,000.0,034.5,027.8,014.6,0000.0,0003.27,0007.51,0001.73
2024-04-30 05:05:00,SystemResetWarning,0822.1,5.01,000.00,026.0,025.1,000.0,034.5,027.8,014.6,0000.0,0003.31,0007.60,0001.74
2024-04-30 05:06:00,SystemResetWarning,0822.1,5.00,000.00,026.0,025.1,000.0,034.5,027.7,014.6,0000.0,0003.29,0007.46,0001.74
2024-04-30 05:07:00,SystemResetWarning,0822.1,5.00,000.00,026.0,025.1,000.0,034.5,027.7,014.6,0000.0,0003.27,0007.12,0001.73
2024-04-30 05:08:00,SystemResetWarning,0822.1,5.00,000.00,026.0,025.1,000.0,034.5,027.7,014.8,0000.0,0003.26,0006.82,0001.73
2024-04-30 05:09:00,SystemResetWarning,0822.0,5.00,000.00,026.0,025.0,000.0,034.5,027.7,015.0,0000.0,0003.31,0007.10,0001.74
2024-04-30 05:10:00,SystemResetWarning,0822.0,5.00,000.00,025.9,025.0,000.0,034.5,027.7,015.2,0000.0,0003.34,0007.31,0001.76
2024-04-30 05:11:00,SystemResetWarning,0822.0,5.00,000.00,025.9,025.0,000.0,034.5,027.7,015.2,0000.0,0003.34,0007.25,0001.76
2024-04-30 05:12:00,SystemResetWarning,0822.0,4.99,000.00,025.9,025.0,000.0,034.5,027.7,015.2,0000.0,0003.30,0007.13,0001.75
2024-04-30 05:13:00,SystemResetWarning,0822.0,5.00,000.00,025.9,025.1,000.0,034.5,027.7,015.0,0000.0,0003.32,0007.25,0001.76
2024-04-30 05:14:00,SystemResetWarning,0822.0,5.01,000.00,025.9,025.0,000.0,034.5,027.7,015.1,0000.0,0003.37,0007.46,0001.78
2024-04-30 05:15:00,SystemResetWarning,0822.0,5.00,000.00,025.9,025.0,000.0,034.5,027.7,015.0,0000.0,0003.34,0007.37,0001.77
2024-04-30 05:16:00,SystemResetWarning,0822.0,4.99,000.00,025.9,025.0,000.0,034.4,027.6,015.0,0000.0,0003.31,0007.21,0001.76
2024-04-30 05:17:00,SystemResetWarning,0822.0,4.99,000.00,025.9,025.0,000.0,034.4,027.6,015.0,0000.0,0003.33,0007.37,0001.78
2024-04-30 05:18:00,SystemResetWarning,0822.0,5.01,000.00,025.9,025.0,000.0,034.4,027.6,014.9,0000.0,0003.34,0007.46,0001.79
2024-04-30 05:19:00,SystemResetWarning,0822.0,5.00,000.00,025.9,025.0,000.0,034.4,027.6,014.8,0000.0,0003.31,0007.39,0001.79
2024-04-30 05:20:00,SystemResetWarning,0822.0,4.99,000.00,025.9,025.0,000.0,034.4,027.6,014.8,0000.0,0003.22,0007.06,0001.78
2024-04-30 05:21:00,SystemResetWarning,0822.0,5.00,000.00,025.8,025.0,000.0,034.4,027.6,014.6,0000.0,0003.19,0006.93,0001.76
2024-04-30 05:22:00,SystemResetWarning,0822.0,5.01,000.00,025.8,024.9,000.0,034.4,027.6,014.7,0000.0,0003.21,0007.14,0001.76
2024-04-30 05:23:00,SystemResetWarning,0821.9,5.00,000.00,025.8,024.9,000.0,034.4,027.6,014.7,0000.0,0003.25,0007.35,0001.76
2024-04-30 05:24:00,SystemResetWarning,0822.0,4.99,000.00,025.8,024.9,000.0,034.4,027.5,014.8,0000.0,0003.24,0007.57,0001.76
2024-04-30 05:25:00,SystemResetWarning,0822.0,5.00,000.00,025.8,024.9,000.0,034.4,027.5,014.6,0000.0,0003.17,0007.38,0001.75
2024-04-30 05:26:00,SystemResetWarning,0821.9,5.00,000.00,025.8,024.9,000.0,034.3,027.5,014.8,0000.0,0003.19,0007.38,0001.76
2024-04-30 05:27:00,SystemResetWarning,0821.9,5.01,000.00,025.8,024.8,000.0,034.3,027.5,015.1,0000.0,0003.21,0007.45,0001.75
2024-04-30 05:28:00,SystemResetWarning,0821.9,5.01,000.00,025.7,024.8,000.0,034.3,027.5,015.3,0000.0,0003.22,0007.48,0001.74
2024-04-30 05:29:00,SystemResetWarning,0821.9,5.01,000.00,025.7,024.8,000.0,034.3,027.5,015.1,0000.0,0003.24,0007.51,0001.73
2024-04-30 05:30:00,SystemResetWarning,0821.9,5.00,000.00,025.7,024.9,000.0,034.3,027.5,014.8,0000.0,0003.26,0007.58,0001.72
2024-04-30 05:31:00,SystemResetWarning,0822.0,4.99,000.00,025.7,024.9,000.0,034.3,027.5,014.9,0000.0,0003.29,0007.71,0001.71
2024-04-30 05:32:00,SystemResetWarning,0822.0,4.99,000.00,025.7,024.9,000.0,034.3,027.5,015.1,0000.0,0003.30,0007.85,0001.72
2024-04-30 05:33:00,SystemResetWarning,0822.0,5.01,000.00,025.7,024.9,000.0,034.3,027.5,015.0,0000.0,0003.30,0007.82,0001.74
2024-04-30 05:34:00,SystemResetWarning,0822.0,5.00,000.00,025.7,024.9,000.0,034.3,027.5,014.9,0000.0,0003.32,0007.92,0001.76
2024-04-30 05:35:00,SystemResetWarning,0822.0,5.00,000.00,025.7,024.9,000.0,034.3,027.5,014.9,0000.0,0003.32,0007.68,0001.76
2024-04-30 05:36:00,SystemResetWarning,0821.9,5.01,000.00,025.7,024.8,000.0,034.3,027.5,014.8,0000.0,0003.36,0007.97,0001.78
2024-04-30 05:37:00,SystemResetWarning,0821.9,5.01,000.00,025.7,024.8,000.0,034.3,027.5,014.7,0000.0,0003.38,0008.14,0001.76
2024-04-30 05:38:00,SystemResetWarning,0821.9,5.00,000.00,025.7,024.8,000.0,034.2,027.4,014.7,0000.0,0003.42,0008.25,0001.77
2024-04-30 05:39:00,SystemResetWarning,0821.9,4.99,000.00,025.7,024.8,000.0,034.2,027.5,014.8,0000.0,0003.42,0008.24,0001.78
2024-04-30 05:40:00,SystemResetWarning,0821.9,4.99,000.00,025.7,024.8,000.0,034.2,027.5,015.0,0000.0,0003.41,0008.20,0001.79
2024-04-30 05:41:00,SystemResetWarning,0821.9,4.99,000.00,025.7,024.8,000.0,034.2,027.4,014.9,0000.0,0003.42,0008.35,0001.81
2024-04-30 05:42:00,SystemResetWarning,0821.8,5.01,000.00,025.7,024.8,000.0,034.2,027.4,014.9,0000.0,0003.46,0008.50,0001.81
2024-04-30 05:43:00,SystemResetWarning,0821.8,5.01,000.00,025.7,024.8,000.0,034.2,027.4,014.8,0000.0,0003.48,0008.34,0001.83
2024-04-30 05:44:00,SystemResetWarning,0821.7,4.98,000.00,025.6,024.8,000.0,034.2,027.4,014.6,0000.0,0003.49,0008.35,0001.82
2024-04-30 05:45:00,SystemResetWarning,0821.7,5.00,000.00,025.6,024.7,000.0,034.2,027.4,014.5,0000.0,0003.49,0008.24,0001.80
2024-04-30 05:46:00,SystemResetWarning,0821.7,5.01,000.00,025.6,024.7,000.0,034.2,027.4,014.3,0000.0,0003.49,0008.19,0001.78
2024-04-30 05:47:00,SystemResetWarning,0821.7,5.00,000.00,025.6,024.7,000.0,034.2,027.4,014.2,0000.0,0003.46,0007.98,0001.76
2024-04-30 05:48:00,SystemResetWarning,0821.6,5.00,000.00,025.6,024.7,000.0,034.2,027.4,014.3,0000.0,0003.45,0007.83,0001.77
2024-04-30 05:49:00,SystemResetWarning,0821.6,4.99,000.00,025.6,024.7,000.0,034.2,027.3,014.5,0000.0,0003.44,0008.18,0001.75
2024-04-30 05:50:00,SystemResetWarning,0821.6,5.01,000.00,025.6,024.7,000.0,034.1,027.3,014.4,0000.0,0003.41,0008.08,0001.75
2024-04-30 05:51:00,SystemResetWarning,0821.6,5.01,000.00,025.6,024.7,000.0,034.1,027.3,014.2,0000.0,0003.45,0008.10,0001.75
2024-04-30 05:52:00,SystemResetWarning,0821.6,4.99,000.00,025.6,024.6,000.0,034.1,027.3,014.1,0000.0,0003.47,0008.06,0001.76
2024-04-30 05:53:00,SystemResetWarning,0821.7,4.99,000.00,025.5,024.6,000.0,034.1,027.3,014.2,0000.0,0003.42,0007.85,0001.75
2024-04-30 05:54:00,SystemResetWarning,0822.0,5.00,000.00,025.5,024.6,000.0,034.1,027.3,014.1,0000.0,0003.44,0007.91,0001.74
2024-04-30 05:55:00,SystemResetWarning,0822.0,5.01,000.00,025.5,024.6,000.0,034.1,027.3,014.1,0000.0,0003.44,0007.94,0001.74
2024-04-30 05:56:00,SystemResetWarning,0822.0,5.01,000.00,025.5,024.6,000.0,034.1,027.3,014.2,0000.0,0003.41,0007.90,0001.75
2024-04-30 05:57:00,SystemResetWarning,0821.9,5.00,000.00,025.5,024.6,000.0,034.1,027.3,014.6,0000.0,0003.38,0007.86,0001.76
2024-04-30 05:58:00,SystemResetWarning,0822.0,5.00,000.00,025.5,024.6,000.0,034.1,027.3,015.2,0000.0,0003.40,0007.97,0001.76
2024-04-30 05:59:00,SystemResetWarning,0822.0,5.00,000.00,025.5,024.6,000.0,034.1,027.3,015.4,0000.0,0003.42,0008.07,0001.76
